sat.trackr.live / text

‹ back to catalog

STARLINK-35721

NORAD 67046 · 2025-294S

PAYLOAD ACTIVE UNKNOWN

§ Identity

Operator
Country
US
Launch date
2025-12-11
Launch site
AFETR
Launch vehicle
Mass (kg)
RCS (m²)

Purposes: comms

External: N2YO · Heavens-Above · Gunter

§ Orbital elements

Epoch: 2026-09-20T09:19:30.272448Z

Period
94.27 min
Inclination
43.0037°
Eccentricity
0.0001732
Mean motion
15.27587042 rev/d
Perigee alt
481.8 km
Apogee alt
484.2 km
Semi-major
6,861.2 km
B*
5.2079e-4
RAAN
18.7060°
Arg perigee
167.3093°
Mean anomaly
192.7803°
Rev number
4,457

§ Raw data

STARLINK-357211 67046U 25294S   26263.38854482  .00014099  00000+0  52079-3 0  99942 67046  43.0037  18.7060 0001732 167.3093 192.7803 15.27587042 44577

JSON: /api/v1/satellites/67046 · /tle

For live sub-satellite position, see the globe view (requires WebGL).

§ Visibility from observer

Set your observer location to see the next 7 days of passes ≥ 10°. The values pass through the URL so the page stays shareable.

No JS? Fill the form by hand. The geolocation button needs JavaScript.